Location: Bear Valley Meadows
(40.9851°N, 123.0761°W)
Time: 14:14:52
(UTC+00:00)

ACS3 Solar Sail - Visible Passes

Search period start: 23 July 2024 00:00
Search period end: 02 August 2024 00:00
Orbit: 993 x 1022 km, 97.4° (Epoch: 23 July)

Date Brightness Start Highest point End Pass type
(mag) Time Alt. Az. Time Alt. Az. Time Alt. Az.
23 Jul 5.9 04:08:50 10° ESE 04:13:59 28° ENE 04:19:10 10° N visible
23 Jul 5.6 05:53:17 17° SSW 05:57:48 47° W 06:03:48 10° NNW visible
24 Jul 5.1 04:42:46 13° SE 04:48:06 52° ENE 04:54:09 10° N visible
24 Jul 6.6 06:28:07 12° SW 06:32:30 24° W 06:37:29 10° NW visible
25 Jul 4.9 05:17:36 18° S 05:22:25 85° WSW 05:28:43 10° NNW visible
25 Jul 7.2 07:05:13 10° WSW 07:07:25 12° W 07:09:36 10° WNW visible
26 Jul 5.9 04:07:53 10° ESE 04:13:05 29° ENE 04:18:21 10° N visible
26 Jul 5.7 05:52:26 17° SSW 05:56:56 45° W 06:02:56 10° NNW visible
27 Jul 5.1 04:41:55 14° SE 04:47:13 54° ENE 04:53:18 10° N visible
27 Jul 6.6 06:27:17 12° SW 06:31:38 24° W 06:36:33 10° NW visible
28 Jul 4.9 05:16:46 18° S 05:21:33 83° W 05:27:52 10° NNW visible
28 Jul 7.2 07:04:39 10° WSW 07:06:33 11° W 07:08:29 10° WNW visible
29 Jul 5.8 04:06:56 10° SE 04:12:12 30° ENE 04:17:31 10° N visible
29 Jul 5.7 05:51:36 17° SSW 05:56:04 44° W 06:02:02 10° NNW visible
30 Jul 5.1 04:41:05 14° SE 04:46:20 55° ENE 04:52:27 10° N visible
30 Jul 6.7 06:26:26 12° SW 06:30:47 23° W 06:35:39 10° NW visible
31 Jul 4.9 05:15:56 18° S 05:20:40 81° WSW 05:27:00 10° NNW visible
31 Jul 7.3 07:04:08 10° W 07:05:43 11° W 07:07:18 10° WNW visible
01 Aug 5.8 04:05:58 10° SE 04:11:19 31° ENE 04:16:42 10° N visible
01 Aug 5.8 05:50:46 17° SSW 05:55:12 43° W 06:01:09 10° NNW visible
